This is the latest recevied weather packets stored in our database for station/object N1YZ. If no packets are shown the sender has not sent any weather packets the latest 10 day(s).
| Time | Temp. | Humidity | Pressure | Rain* | Wind** | Luminosity | Snow |
|---|---|---|---|---|---|---|---|
| 1788205786 | 32.78° C | 59% | 1038 hPa | 0 mm | - | 57 W/m² | - |
| 1788205474 | 32.78° C | 61% | 1038 hPa | 0 mm | - | 61 W/m² | - |
| 1788205174 | 32.78° C | 58% | 1038 hPa | 0 mm | - | 61 W/m² | - |
| 1788204869 | 32.78° C | 60% | 1038.3 hPa | 0 mm | - | 63 W/m² | - |
| 1788204564 | 32.78° C | 62% | 1038.3 hPa | 0 mm | - | 74 W/m² | - |
| 1788204259 | 32.22° C | 64% | 1038.2 hPa | 0 mm | - | 64 W/m² | - |
| 1788203954 | 32.22° C | 63% | 1038.2 hPa | 0 mm | - | 66 W/m² | - |
| 1788203651 | 32.78° C | 63% | 1038 hPa | 0 mm | - | 63 W/m² | - |
| 1788203347 | 32.78° C | 64% | 1038.2 hPa | 0 mm | - | 62 W/m² | - |
| 1788203047 | 32.78° C | 61% | 1038.2 hPa | 0 mm | - | 72 W/m² | - |
| 1788202746 | 33.89° C | 58% | 1038.2 hPa | 0 mm | - | 686 W/m² | - |
| 1788202442 | 33.33° C | 60% | 1038.5 hPa | 0 mm | - | 705 W/m² | - |
| 1788202141 | 33.89° C | 63% | 1038.5 hPa | 0 mm | - | 740 W/m² | - |
| 1788201836 | 33.89° C | 60% | 1038.7 hPa | 0 mm | - | 720 W/m² | - |
| 1788201531 | 33.33° C | 62% | 1038.7 hPa | 0 mm | - | 688 W/m² | - |
| 1788201225 | 32.78° C | 61% | 1038.8 hPa | 0 mm | - | 688 W/m² | - |
| 1788200924 | 31.11° C | 67% | 1038.9 hPa | 0 mm | - | 709 W/m² | - |
| 1788200619 | 31.11° C | 67% | 1039 hPa | 0 mm | - | 66 W/m² | - |
| 1788200315 | 32.22° C | 68% | 1039 hPa | 0 mm | - | 53 W/m² | - |
| 1788200010 | 32.78° C | 62% | 1039.1 hPa | 0 mm | - | 726 W/m² | - |
| 1788199705 | 32.22° C | 63% | 1039.2 hPa | 0 mm | - | 682 W/m² | - |
| 1788199400 | 31.67° C | 69% | 1039.3 hPa | 0 mm | - | 725 W/m² | - |
| 1788199098 | 31.67° C | 66% | 1039.1 hPa | 0 mm | - | 64 W/m² | - |
| 1788198795 | 31.11° C | 66% | 1039.3 hPa | 0 mm | - | 165 W/m² | - |
| 1788198490 | 31.67° C | 66% | 1039.3 hPa | 0 mm | - | 79 W/m² | - |
* Rain latest hour (hover to see other rain measurements)
** Current wind speed in m/s (hover to see current wind gust speed)